[[{"header":{"parameterUnit":"m.s-1","parameterCategory":1,"la1":30.2991,"la2":30.254,"lo1":-89.0895,"lo2":-89.0444,"dy":0.0017,"dx":0.0017,"nx":28,"ny":28,"refTime":"2025-06-13T21:00:00:Z","depth":0,"parameterNumber":2,"parameterNumberName":"U-component_of_WINDS"},"data":[0,0,0,0,0,0,0,0,0,0,0,0,0,0,0,0,0,0,0,0,0,0,0,0,0,0,0,0,0,0,0,0,0,0,0,0,0,0,0,0,0,0,0,0,0,0,0,0,0,0,0,0,0,0,0,0,0,0,0.9544,0.9544,0,0.9564,0.9564,0.9565,0.9493,0.9491,0.9489,0.9487,0.9514,0.9517,0.952,0,0,0,0,0,0,0,0,0,0,0,0,0,0.9446,0.9448,0.9544,0.9544,0.9544,0.9564,0.9564,0.9565,0.9494,0.9491,0.9488,0.9486,0.9513,0.9517,0.952,0,0,0,0,0,0,0,0,0,0,0,0,0,0.948,0.9449,0.9544,0.9511,0.9508,0.9564,0.9564,0.9565,0.9494,0.9491,0.9488,0.9485,0.9512,0.9516,0.952,0.9611,0,0,0.9533,0.9535,0,0,0,0,0,0,0,0,0.9478,0.9483,0.9515,0.9513,0.951,0.9523,0.954,0.958,0.9495,0.95,0.9487,0.9483,0.952,0.9523,0.9535,0.9612,0.9613,0.9533,0.9536,0.9538,0.9539,0,0,0,0,0,0,0,0.9476,0.9482,0.9552,0.9516,0.9513,0.9496,0.9497,0.9547,0.9528,0.9499,0.9494,0.9497,0.9518,0.9531,0.9535,0.9614,0.9533,0.9537,0.9539,0.9541,0.9762,0.9765,0,0,0,0,0,0,0.9477,0.9481,0.9551,0.9553,0.9485,0.95,0.9502,0.9522,0.9527,0.9525,0.95,0.9493,0.9525,0.953,0.9535,0.9639,0.9538,0.9541,0.9544,0.9759,0.9763,0.9767,0,0,0,0,0,0,0.9475,0.9484,0.955,0.9515,0.9522,0.9506,0.9529,0.9524,0.9537,0.9528,0.9524,0.9516,0.9523,0.953,0.9591,0.964,0.9543,0.9547,0.9755,0.976,0.9765,0.985,0,0,0,0,0,0,0.9473,0.9484,0.9518,0.9516,0.9524,0.9606,0.9532,0.9527,0.9543,0.9535,0.9542,0.954,0.9521,0.9585,0.9595,0.9643,0.955,0.9751,0.9757,0.9763,0.9843,0.9857,0.987,0,0,0,0,0,0.9469,0.9543,0.952,0.9529,0.9566,0.9609,0.9613,0.9588,0.9547,0.9582,0.9575,0.954,0.9632,0.9592,0.9603,0.9653,0.9747,0.9755,0.9763,0.9837,0.9854,0.9869,0,0,0,0,0,0,0.9555,0.9543,0.9517,0.9592,0.9601,0.9596,0.9639,0.9608,0.9631,0.9623,0.9592,0.9594,0.9661,0.9663,0.9619,0.9739,0.9683,0.9693,0.9736,0.9752,0.9765,0.9765,0.9554,0,0,0,0,0,0.9581,0.9615,0.9604,0.9671,0.9677,0.9657,0.9675,0.9653,0.9663,0.9667,0.9665,0.9678,0.9708,0.973,0.9759,0.9841,0.9841,0.9881,0.9894,0.9905,0.9915,0.9957,0.9974,0.9792,0.9792,0.9792,0,0,0.9639,0.9636,0.9661,0.9688,0.9693,0.9729,0.9661,0.9704,0.973,0.9675,0.9732,0.973,0.9741,0.9813,0.9845,0.9817,0.9964,0.9915,0.9924,0.9928,0.9966,0.9983,0.9999,0.9797,0.9796,0.9795,0,0,0.9762,0.9764,0.9819,0.9823,0.983,0.9815,0.9828,0.9826,0.9822,0.9878,0.9836,0.9867,0.9923,0.9931,0.9943,1.0063,1.0031,1.0073,1.0144,1.0185,1.0199,1.0212,1.0254,1.0269,1.0082,1.0082,1.0082,0,0.9834,0.9885,0.9852,0.9895,0.9908,0.9854,0.9909,0.9916,0.9933,0.9944,0.9911,0.9975,0.998,1.0051,1.008,1.0091,1.0105,1.0073,1.0199,1.0212,1.0223,1.0263,1.0279,1.0087,1.0087,1.0086,1.0086,0,0.9972,1.0008,1.0051,1.0065,1.0082,1.0132,1.0106,1.0127,1.0103,1.0092,1.0148,1.0149,1.0176,1.0191,1.017,1.0259,1.0241,1.0204,1.0148,1.0246,1.0282,1.0297,1.0094,1.0093,1.0091,1.009,0,0,1.0155,1.0143,1.016,1.0164,1.0164,1.0192,1.0238,1.026,1.0279,1.029,1.0328,1.0373,1.0337,1.035,1.0329,1.0364,1.0457,1.0323,1.0323,1.0348,1.0554,1.0582,1.06,1.0435,1.0437,1.044,1.0553,0,1.0275,1.0351,1.0319,1.0399,1.043,1.0377,1.0416,1.0421,1.0411,1.0437,1.0425,1.0457,1.0409,1.0416,1.0448,1.0439,1.0498,1.043,1.047,1.0472,1.047,1.0619,1.065,1.0757,1.0567,1.0569,1.0571,0,1.0427,1.044,1.0521,1.0512,1.0524,1.056,1.0576,1.0601,1.0604,1.0594,1.0605,1.0574,1.0618,1.056,1.062,1.0574,1.0588,1.0585,1.0589,1.0593,1.0529,1.0628,1.0791,1.0807,1.0593,1.0592,1.059,0,1.0551,1.0589,1.0642,1.0647,1.0637,1.0663,1.0661,1.066,1.0674,1.0688,1.0697,1.0717,1.0729,1.0745,1.072,1.068,1.0783,1.0723,1.0776,1.0777,1.0803,1.0802,1.0971,1.081,1.081,1.081,1.0809,0,1.0689,1.0741,1.0697,1.073,1.0785,1.0748,1.0804,1.0796,1.0795,1.0825,1.0781,1.0811,1.0775,1.0801,1.0782,1.0834,1.084,1.0833,1.0827,1.0837,1.0838,1.0848,1.084,1.0814,1.0813,1.0812,1.0811,0,1.0839,1.0812,1.0865,1.0849,1.0846,1.0888,1.0875,1.0905,1.0888,1.0927,1.0934,1.091,1.0937,1.0913,1.0941,1.0928,1.0996,1.098,1.0995,1.0991,1.1045,1.104,1.1227,1.1249,1.1074,1.1076,1.1077,0,1.093,1.0968,1.0954,1.097,1.0969,1.0995,1.1007,1.097,1.0985,1.0988,1.1018,1.1041,1.1058,1.1105,1.1091,1.1111,1.1095,1.1159,1.1099,1.1106,1.1096,1.1094,1.1098,1.1172,1.1174,1.1176,1.1177,0,1.1095,1.1077,1.1096,1.1108,1.1123,1.1132,1.1138,1.1154,1.1115,1.1134,1.116,1.1173,1.1198,1.1222,1.1236,1.1235,1.12,1.1195,1.1209,1.1221,1.1227,1.1224,1.1029,1.1192,1.1191,1.119,1.1189,1.1188,1.1218,1.1247,1.1241,1.1262,1.1261,1.1266,1.1292,1.1276,1.1296,1.1312,1.1289,1.1321,1.1319,1.1335,1.1337,1.1361,1.1335,1.1355,1.136,1.1366,1.1373,1.1222,1.1364,1.1364,1.1363,1.1363,1.1362,0,1.1379,1.1371,1.139,1.1397,1.1413,1.1374,1.1377,1.1393,1.1421,1.1421,1.1436,1.1465,1.1486,1.1471,1.1489,1.1511,1.1496,1.1517,1.1516,1.1516,1.1396,1.1382,1.1529,1.1529,1.1529,1.1529,1.1529,1.1529,1.1466,1.1513,1.1494,1.154,1.1531,1.1559,1.1564,1.1568,1.1567,1.16,1.1616,1.1604,1.1598,1.1614,1.1631,1.1626,1.1635,1.1663,1.1652,1.1541,1.1525,1.1509,1.1496,1.1665,1.1665,1.177,1.1771,1.1772]},{"header":{"parameterUnit":"m.s-1","parameterCategory":1,"la1":30.2991,"la2":30.254,"lo1":-89.0895,"lo2":-89.0444,"dy":0.0017,"dx":0.0017,"nx":28,"ny":28,"refTime":"2025-06-13T21:00:00:Z","depth":0,"parameterNumber":3,"parameterNumberName":"V-component_of_WINDS"},"data":[0,0,0,0,0,0,0,0,0,0,0,0,0,0,0,0,0,0,0,0,0,0,0,0,0,0,0,0,0,0,0,0,0,0,0,0,0,0,0,0,0,0,0,0,0,0,0,0,0,0,0,0,0,0,0,0,0,0,4.8202,4.8204,0,4.8328,4.8329,4.833,4.83,4.8298,4.8295,4.8293,4.8414,4.8419,4.8425,0,0,0,0,0,0,0,0,0,0,0,0,0,4.7927,4.7932,4.8202,4.8204,4.8205,4.8327,4.8329,4.8331,4.8301,4.8298,4.8295,4.8292,4.8412,4.8419,4.8425,0,0,0,0,0,0,0,0,0,0,0,0,0,4.8048,4.7934,4.8202,4.8205,4.8207,4.8327,4.8329,4.8331,4.8301,4.8298,4.8294,4.8291,4.841,4.8418,4.8426,4.8549,0,0,4.8451,4.8455,0,0,0,0,0,0,0,0,4.8042,4.8059,4.8203,4.8205,4.8207,4.8295,4.8276,4.8404,4.8302,4.8265,4.8293,4.8289,4.8377,4.8387,4.8419,4.8554,4.8559,4.8452,4.8457,4.846,4.8463,0,0,0,0,0,0,0,4.8033,4.8053,4.8251,4.8205,4.8208,4.8197,4.821,4.83,4.8339,4.8268,4.8266,4.8282,4.8377,4.8411,4.8421,4.8561,4.8452,4.8459,4.8464,4.8467,4.8799,4.8803,0,0,0,0,0,0,4.8024,4.8046,4.8248,4.8255,4.8114,4.8205,4.822,4.827,4.8338,4.8345,4.8285,4.828,4.8399,4.8412,4.8425,4.8571,4.846,4.8468,4.8473,4.8795,4.88,4.8804,0,0,0,0,0,0,4.8019,4.8043,4.8242,4.815,4.8175,4.8214,4.827,4.8275,4.8308,4.8351,4.8357,4.8313,4.8396,4.8414,4.8518,4.8575,4.8472,4.8479,4.8791,4.8797,4.8802,4.8865,0,0,0,0,0,0,4.8011,4.8041,4.809,4.8152,4.818,4.8336,4.8274,4.828,4.8323,4.8318,4.8379,4.8385,4.8395,4.8506,4.8526,4.8584,4.8485,4.8786,4.8793,4.88,4.8858,4.8872,4.8885,0,0,0,0,0,4.8001,4.8102,4.8093,4.8118,4.8243,4.834,4.8355,4.8367,4.8328,4.8376,4.8403,4.8383,4.8565,4.8517,4.8539,4.8601,4.8782,4.8791,4.88,4.8852,4.887,4.8884,0,0,0,0,0,0,4.8044,4.811,4.8101,4.8226,4.8278,4.8334,4.8396,4.8385,4.8447,4.8439,4.8448,4.8461,4.8567,4.8594,4.8539,4.8721,4.8668,4.8682,4.87,4.8717,4.873,4.8721,4.8492,0,0,0,0,0,4.8069,4.8145,4.8197,4.8301,4.8328,4.8358,4.84,4.8404,4.8457,4.8478,4.8512,4.8562,4.863,4.8675,4.874,4.8861,4.8872,4.8914,4.8928,4.8938,4.895,4.9013,4.9032,4.8833,4.8833,4.8833,0,0,4.8119,4.8165,4.8212,4.8311,4.8352,4.8427,4.8376,4.8458,4.8513,4.8489,4.859,4.8617,4.8672,4.8785,4.8836,4.8811,4.9007,4.895,4.8958,4.8964,4.9024,4.9043,4.9059,4.8839,4.8838,4.8837,0,0,4.825,4.8293,4.8384,4.8426,4.8488,4.8507,4.8528,4.8587,4.8604,4.8706,4.8689,4.8752,4.887,4.891,4.8945,4.9087,4.907,4.9108,4.9177,4.9238,4.9254,4.9268,4.9316,4.9334,4.9119,4.9119,4.9119,0,4.8304,4.842,4.8431,4.8515,4.8557,4.8541,4.8631,4.867,4.8749,4.8777,4.8748,4.8894,4.8931,4.9051,4.9085,4.9115,4.9137,4.9101,4.9251,4.9265,4.9278,4.9324,4.9343,4.9123,4.9123,4.9122,4.9122,0,4.8482,4.8562,4.8627,4.8706,4.8756,4.8842,4.8863,4.8912,4.891,4.893,4.9031,4.9074,4.9147,4.9175,4.9174,4.9295,4.9277,4.9249,4.9196,4.9301,4.9344,4.9363,4.9129,4.9128,4.9126,4.9125,0,0,4.8645,4.8728,4.8752,4.8787,4.8853,4.8913,4.8996,4.9069,4.9109,4.9163,4.9231,4.933,4.9305,4.9345,4.9348,4.9402,4.9508,4.9367,4.9368,4.939,4.964,4.966,4.968,4.9497,4.9501,4.9503,4.9635,0,4.878,4.8931,4.8942,4.9076,4.9148,4.9132,4.9204,4.925,4.927,4.9331,4.9352,4.9422,4.9384,4.9408,4.9461,4.9484,4.9558,4.9475,4.9557,4.956,4.9544,4.9703,4.9725,4.9847,4.9652,4.9655,4.9657,0,4.8959,4.902,4.9162,4.9216,4.9247,4.9312,4.9378,4.9437,4.9488,4.9498,4.9543,4.9537,4.9618,4.9562,4.9672,4.9615,4.9649,4.9665,4.967,4.9678,4.9615,4.9714,4.9887,4.9905,4.9684,4.9682,4.968,0,4.9062,4.9179,4.9279,4.9309,4.9375,4.942,4.9449,4.9497,4.9539,4.9595,4.9621,4.9686,4.9721,4.9769,4.9779,4.9738,4.9888,4.9834,4.9897,4.9897,4.9929,4.9927,5.0109,4.9953,4.9953,4.9952,4.9952,0,4.9211,4.9298,4.9326,4.9387,4.9482,4.9492,4.9585,4.9611,4.9652,4.9715,4.9704,4.9763,4.9773,4.9833,4.9841,4.993,4.9946,4.9954,4.9955,4.9955,4.9954,4.9977,4.9968,4.9957,4.9956,4.9955,4.9954,0,4.9342,4.9365,4.9472,4.9525,4.954,4.9608,4.9652,4.9708,4.9727,4.9806,4.9825,4.9853,4.9922,4.9937,5.0019,5.0024,5.0129,5.0122,5.0113,5.0112,5.0174,5.0167,5.0376,5.0403,5.0231,5.0232,5.0234,0,4.9436,4.9503,4.9563,4.9606,4.9637,4.9706,4.9749,4.9759,4.9804,4.9865,4.9913,4.9982,5.0038,5.0149,5.0174,5.0236,5.0229,5.0298,5.0238,5.0235,5.0228,5.0224,5.0229,5.0309,5.0311,5.0313,5.0314,0,4.9599,4.9606,4.967,4.9738,4.9789,4.9842,4.9892,4.9926,4.9943,4.9993,5.0065,5.0108,5.0192,5.0259,5.032,5.0346,5.0332,5.0332,5.035,5.035,5.0341,5.0345,5.0143,5.0327,5.0326,5.0325,5.0324,5.0324,4.9713,4.9771,4.9822,4.9892,4.9931,4.9978,5.0033,5.0058,5.0119,5.019,5.0192,5.0269,5.0314,5.0395,5.0425,5.0483,5.0461,5.0487,5.0494,5.05,5.0504,5.0333,5.0494,5.0494,5.0494,5.0493,5.0493,0,4.9874,4.9906,4.9971,5.0042,5.0096,5.008,5.0134,5.0179,5.0249,5.0293,5.0348,5.0429,5.0493,5.0523,5.0585,5.0626,5.0621,5.0642,5.0638,5.0644,5.0521,5.0499,5.0645,5.0645,5.0645,5.0645,5.0645,5.0645,4.9965,5.006,5.0073,5.0186,5.0216,5.0295,5.0326,5.0367,5.0403,5.0494,5.0548,5.0568,5.0605,5.067,5.0727,5.0734,5.0756,5.078,5.0783,5.0668,5.0653,5.0638,5.0617,5.0785,5.0786,5.0901,5.0902,5.0903]}]]